Location: Ehingen
(48.2869°N, 9.7112°E)
Time: 22:47:06
(UTC+01:00)

ISS - Visible Passes

Search period start: 09 February 2026 00:00
Search period end: 19 February 2026 00:00
Orbit: 414 x 429 km, 51.6° (Epoch: 9 February)

Date Brightness Start Highest point End Pass type
(mag) Time Alt. Az. Time Alt. Az. Time Alt. Az.
12 Feb -0.9 06:20:27 10° S 06:22:34 16° SE 06:24:43 10° E visible
13 Feb -0.5 05:35:13 10° SE 05:35:46 10° SE 05:36:19 10° ESE visible
14 Feb -2.3 06:21:54 10° SW 06:25:01 36° SE 06:28:07 10° ENE visible
15 Feb -1.7 05:36:22 17° S 05:38:03 25° SE 05:40:51 10° E visible
16 Feb -1.1 04:51:33 16° SE 04:51:33 16° SE 04:53:21 10° E visible
16 Feb -3.7 06:24:33 12° WSW 06:27:33 79° SSE 06:30:55 10° ENE visible
17 Feb -3.3 05:39:35 39° SSW 05:40:30 55° SSE 05:43:46 10° ENE visible
18 Feb -1.8 04:54:29 29° ESE 04:54:29 29° ESE 04:56:34 10° ENE visible
18 Feb -3.6 06:27:29 14° W 06:30:12 60° NNW 06:33:31 10° ENE visible
